Orbital Elements at Epoch 2459000.5 (2020-May-31.0) TDB
Reference: JPL 14 (heliocentric ecliptic J2000)
Element | Value | Uncertainty (1-sigma) | Units |
e | .1434041125068321 | 4.7663e-08 | |
a | 2.379404247602164 | 1.1108e-08 | au |
q | 2.038187893179789 | 1.1014e-07 | au |
i | 8.78797384938667 | 5.4531e-06 | deg |
node | 45.08995307366185 | 3.3261e-05 | deg |
peri | 41.73509687327181 | 4.0393e-05 | deg |
M | 184.1821386788793 | 2.1514e-05 | deg |
tp | 2459655.228532965440 (2022-Mar-16.72853297) | 8.1572e-05 | TDB |
period | 1340.604817374399 3.67 | 9.3878e-06 2.57e-08 | d yr |
n | .2685355112366873 | 1.8805e-09 | deg/d |
Q | 2.720620602024539 | 1.2701e-08 | au |
|
| | Orbit Determination Parameters
Additional Information
|